Location: Holbach
(51.5399°N, 10.6036°E)
Time: 10:01:03
(UTC+00:00)

Cosmos 2151 Rocket - Pass Details

Date: 18 September 2020
Orbit: 618 x 642 km, 82.5° (Epoch: 25 October)

Event Time Altitude Azimuth Distance (km) Brightness Sun altitude
Rises 18:45:06 0° 172° (S) 2,904 6.7 -13.1°
Reaches altitude 10° 18:47:22 10° 167° (SSE) 2,006 5.9 -13.5°
Maximum altitude 18:51:38 48° 94° (E) 837 3.8 -14.1°
Drops below altitude 10° 18:55:58 10° 20° (NNE) 2,036 6.2 -14.7°
Sets 18:58:17 0° 15° (NNE) 2,953 7.1 -15.0°
